Location: Bailleul
(50.3375°N, 2.8513°E)
Time: 15:53:14
(UTC+00:00)

Cosmos 2016 Rocket - Pass Details

Date: 28 October 2021
Orbit: 946 x 1001 km, 83.0° (Epoch: 30 November)

Event Time Altitude Azimuth Distance (km) Brightness Sun altitude
Rises 19:06:14 0° 181° (S) 3,648 6.9 -25.2°
Reaches altitude 10° 19:08:45 10° 179° (S) 2,698 6.2 -25.6°
Maximum altitude 19:14:53 74° 96° (E) 998 3.8 -26.5°
Drops below altitude 10° 19:21:00 10° 13° (NNE) 2,687 6.3 -27.5°
Sets 19:23:30 0° 11° (NNE) 3,633 7.0 -27.9°
